Retour au catalogue

NOAA 16 DEB

ActifPO
NORAD 41418·DEBRIS·🇺🇸 United States

Lancé Sep 21, 2000 depuis Vandenberg Space Force Base

Loading…

Prochains Passages (prochaines 24 heures)

TLE

FraisSource: Space-Track

Époque: Sep 14, 2026, 10:57 UTC

1 41418U 00055KX  26257.45635709  .00003795  00000-0  94067-3 0  9992
2 41418  99.0005 142.1680 0024350 200.1962 159.8271 14.52381382550234

Suivez NOAA 16 DEB en temps réel avec AllMySat

Download on the App Store